Notices

What's New in latest Release from April 7th, 2021:

- Updated Glossary, including Speed of Maximum Gust, and Total Hourly Precipitation

- Updated national and regional climate services offices contacts and prices information

- Addition of station inventory lists for 1981-2010, 1971-2000, and 1961-1990 Normals.

If you haven't already, please take our survey and provide feedback about our website: https://eccc.sondage-survey.ca/f/LanguageSelection.aspx?s=442ca660-fcf1-47c0-95a9-59707d6fd709

Hourly Data Report for March 23, 2018

MIRAMICHI RCS
NEW BRUNSWICK

47°00'34.000" N
65°27'54.000" W
33.00 m
8100989
71744
ACQ

Download Data

Hourly Data (March 2018)
Hourly Data Report for March 23, 2018
TIME
LST
Temp Definition
°C
Dew Point Definition
°C
Rel Hum Definition
%
Precip. Amount Definition
mm

Wind Dir Definition
10's deg

Wind Spd Definition
km/h
Visibility Definition
km
Stn Press Definition
kPa
Hmdx Definition


Wind Chill Definition


Weather Definition


00:00 -1.3 -2.8 90 0.0 2 18   100.05   -7 LegendNANA
01:00 -1.2 -2.8 89 0.0 2 17   100.02   -6 LegendNANA
02:00 -1.2 -2.8 88 0.0 2 16   100.05   -6 LegendNANA
03:00 -1.1 -2.9 88 0.0 1 15   100.01   -6 LegendNANA
04:00 -1.2 -2.9 88 0.0 1 13   100.04   -5 LegendNANA
05:00 -1.0 -3.0 87 0.0 36 12   100.08   -5 LegendNANA
06:00 -0.8 -3.2 83 0.0 36 11   100.13   -5 LegendNANA
07:00 -0.9 -2.6 89 0.0 35 9   100.24   -4 LegendNANA
08:00 -0.5 -2.1 89 0.0 34 8   100.29   -3 LegendNANA
09:00 0.6 -2.6 79 0.0 35 10   100.32     LegendNANA
10:00 1.4 -3.3 71 0.0 36 14   100.36     LegendNANA
11:00 1.7 -3.5 68 0.0 35 12   100.38     LegendNANA
12:00 2.2 -3.9 64 0.0 35 13   100.43     LegendNANA
13:00 2.7 -4.0 61 0.0 36 13   100.46     LegendNANA
14:00 3.0 -4.6 57 0.0 1 13   100.48     LegendNANA
15:00 3.5 -4.7 55 0.0 2 15   100.52     LegendNANA
16:00 3.6 -4.7 54 0.0 3 15   100.57     LegendNANA
17:00 3.2 -4.4 58 0.0 4 12   100.64     LegendNANA
18:00 1.2 -2.7 75 0.0 7 9   100.71     LegendNANA
19:00 0.7 -2.9 77 0.0   0   100.77     LegendNANA
20:00 0.1 -2.6 82 0.0   0   100.83     LegendNANA
21:00 -0.1 -2.4 85 0.0 9 1   100.88   0 LegendNANA
22:00 -0.6 -2.4 88 0.0   0   100.93     LegendNANA
23:00 -1.0 -2.5 90 0.0   0   100.94     LegendNANA

Notes on Data Quality.

Legend

  • E = Estimated
  • M = Missing
  • NA = Not Available*
  • [empty] = Indicates an unobserved value
Date modified: